Overview Statistics Trail Chart Weather Telemetry Raw packets
 

This is the latest recevied weather packets stored in our database for station/object KF6RAL-6. If no packets are shown the sender has not sent any weather packets the latest 10 day(s).

<< 29 30 31 32 33 34 35 >>
Time Temp. Humidity Pressure Rain* Wind** Luminosity Snow
1788393634 28.89° C 14% 1009.5 hPa 0 mm - - -
1788393213 28.89° C 16% 1009.3 hPa 0 mm - - -
1788392792 28.89° C 15% 1009.2 hPa 0 mm - - -
1788392371 28.89° C 16% 1009.4 hPa 0 mm - - -
1788391529 28.89° C 15% 1009.5 hPa 0 mm - - -
1788391109 28.89° C 15% 1009.5 hPa 0 mm - - -
1788390688 28.89° C 15% 1009.4 hPa 0 mm - - -
1788390266 28.89° C 15% 1009.8 hPa 0 mm - - -
1788389845 28.89° C 15% 1009.5 hPa 0 mm - - -
1788389424 28.89° C 16% 1009.9 hPa 0 mm - - -
1788389003 28.89° C 16% 1009.9 hPa 0 mm - - -
1788388582 28.89° C 15% 1009.9 hPa 0 mm - - -
1788388161 28.89° C 15% 1009.9 hPa 0 mm - - -
1788387740 28.89° C 16% 1009.7 hPa 0 mm - - -
1788387318 28.89° C 17% 1010 hPa 0 mm - - -
1788386897 28.89° C 15% 1009.9 hPa 0 mm - - -
1788386477 28.89° C 16% 1010.3 hPa 0 mm - - -
1788386055 28.89° C 17% 1009.7 hPa 0 mm - - -
1788385635 28.89° C 16% 1010.1 hPa 0 mm - - -
1788385213 28.89° C 16% 1010.2 hPa 0 mm - - -
1788384792 28.89° C 17% 1010.2 hPa 0 mm - - -
1788383950 28.89° C 20% 1010.2 hPa 0 mm - - -
1788383529 28.89° C 18% 1010.3 hPa 0 mm - - -
1788383108 28.89° C 17% 1010.5 hPa 0 mm - - -
1788382687 28.33° C 17% 1010.7 hPa 0 mm - - -

* Rain latest hour (hover to see other rain measurements)
** Current wind speed in m/s (hover to see current wind gust speed)